Date,TemperatureHighF,TemperatureAvgF,TemperatureLowF,DewpointHighF,DewpointAvgF,DewpointLowF,HumidityHigh,HumidityAvg,HumidityLow,PressureMaxIn,PressureMinIn,WindSpeedMaxMPH,WindSpeedAvgMPH,GustSpeedMaxMPH,PrecipitationSumIn
2013-3-1,75.2,56.0,42.7,55.0,48.7,42.0,99,80,42,30.43,30.22,3,0,6,0.01
2013-3-2,71.1,56.5,45.8,54.0,49.6,45.0,97,79,51,30.23,30.06,4,0,8,0.00
2013-3-3,64.3,53.4,48.9,51.0,48.2,45.0,92,83,62,30.10,30.05,5,1,9,0.00
2013-3-4,60.3,49.8,44.5,47.0,44.4,41.0,91,82,60,30.15,30.06,7,1,10,0.00
2013-3-5,59.8,49.8,39.0,47.0,42.6,37.0,96,78,54,30.07,29.84,16,2,16,0.06
2013-3-6,57.8,51.1,41.7,48.0,43.4,40.0,93,76,55,30.07,29.85,9,2,14,0.14
2013-3-7,61.1,48.7,39.5,46.0,41.4,37.0,97,79,43,29.99,29.85,4,0,6,0.09
2013-3-8,59.8,50.4,42.5,47.0,43.5,39.0,95,78,57,30.05,29.82,11,1,14,0.00
2013-3-9,65.7,50.9,37.7,47.0,42.4,37.0,98,76,40,30.30,30.05,5,1,10,0.00
2013-3-10,69.5,53.1,38.9,49.0,42.9,37.0,98,73,33,30.34,30.24,4,1,7,0.00
2013-3-11,71.2,52.9,38.2,50.0,44.7,37.0,98,77,35,30.25,30.10,5,0,8,0.00
2013-3-12,72.6,55.7,44.9,54.0,49.3,44.0,97,81,50,30.16,30.06,4,0,5,0.00
2013-3-13,79.4,57.6,46.1,56.0,50.3,45.0,98,80,43,30.16,30.04,5,0,6,0.00
2013-3-14,67.6,55.3,47.5,53.0,49.7,46.0,98,82,58,30.16,30.08,4,0,8,0.00
2013-3-15,68.0,52.5,43.4,52.0,48.0,43.0,98,86,56,30.13,30.04,4,0,9,0.00
2013-3-16,66.2,55.4,48.9,53.0,49.0,47.0,95,80,55,30.12,30.02,5,1,9,0.00
2013-3-17,66.5,53.7,42.7,49.0,44.7,41.0,98,75,40,30.15,30.05,6,1,10,0.01
2013-3-18,65.7,52.7,40.6,49.0,45.3,39.0,96,78,51,30.12,30.02,3,0,8,0.00
2013-3-19,68.0,54.1,44.0,49.0,44.8,38.0,95,74,39,30.14,30.05,4,0,7,0.09
2013-3-20,61.7,54.9,50.2,56.0,51.4,47.0,94,88,70,30.13,30.06,6,1,7,0.03
2013-3-21,65.0,52.9,40.3,50.0,44.1,39.0,96,74,48,30.13,30.01,6,1,11,0.00
2013-3-22,68.8,54.3,38.8,44.0,39.1,30.0,95,62,24,30.11,30.02,7,1,12,0.00
2013-3-23,67.4,53.0,38.7,44.0,38.9,32.0,93,64,30,30.14,30.04,6,1,8,0.00
2013-3-24,66.8,53.4,40.0,49.0,45.4,39.0,97,76,50,30.09,29.97,5,1,8,0.00
2013-3-25,58.0,50.7,45.4,46.0,44.4,43.0,92,80,61,30.03,29.96,4,1,11,0.00
2013-3-26,65.5,54.6,48.1,49.0,45.6,43.0,86,73,54,30.00,29.93,5,1,9,0.00
2013-3-27,67.1,56.1,45.3,55.0,50.0,43.0,94,81,63,30.01,29.95,3,1,8,0.00
2013-3-28,69.8,59.4,53.1,56.0,53.2,51.0,96,81,56,30.08,30.00,4,0,7,0.04
2013-3-29,75.6,59.1,48.4,56.0,52.0,47.0,98,79,48,30.07,30.00,5,1,10,0.00
2013-3-30,71.6,58.3,52.2,56.0,52.2,50.0,94,81,51,30.07,29.97,2,0,6,0.04
2013-3-31,69.9,59.4,52.1,57.0,53.4,50.0,97,81,52,30.05,29.99,4,1,10,0.08